Weather History for Jackson, TN

Change the Weather History Date:

Friday, July 5, 2013

  Actual Average Record
Temperature  
Mean Temperature 75 °F 79 °F  
Max Temperature 83 °F 90 °F 103 °F (2012)
Min Temperature 66 °F 68 °F 53 °F (1968)
Degree Days  
Heating Degree Days 0 0  
Month to date heating degree days 0 0  
Since 1 June heating degree days 0 2  
Since 1 July heating degree days 0 0  
Cooling Degree Days 10 14  
Month to date cooling degree days 40 70  
Year to date cooling degree days 583 624  
Since 1 June cooling degree days 383 409  
Growing Degree Days 24 (Base 50)    
Moisture  
Dew Point 68 °F    
Average Humidity 82    
Maximum Humidity 100    
Minimum Humidity 63    
Precipitation  
Precipitation 0.58 in 0.14 in 3.01 in (1967)
Month to date precipitation 1.05 0.73  
Year to date precipitation 38.81 29.11  
Snow  
Snow 0.00 in 0.00 in - ()
Month to date snowfall 0.0 0.0  
Since 1 June snowfall 0.0 0.0  
Since 1 July snowfall 0.0 0.0  
Snow Depth 0.00 in    
Sea Level Pressure  
Sea Level Pressure 30.05 in    
Wind  
Wind Speed 3 mph (SE)    
Max Wind Speed 16 mph    
Max Gust Speed 22 mph    
Visibility 10 miles    
Events Rain , Thunderstorm    
T = Trace of Precipitation, MM = Missing Value Source: NWS Daily Summary

Daily Weather History Graph

Daily Weather History Graph

Search for Another Location

Airport:

Trip Planner

Search our weather history database for the weather conditions in past years. The results will help you decide how hot, cold, wet, or windy it might be!

Date:

Astronomy

Jul. 05, 2013 Rise Set
Actual Time 5:45 AM CDT 8:14 PM CDT
Civil Twilight 5:16 AM CDT 8:44 PM CDT
Nautical Twilight 4:39 AM CDT 9:21 PM CDT
Astronomical Twilight 3:58 AM CDT 10:01 PM CDT
Moon 3:43 AM CDT (7/5) 6:11 PM CDT (7/5)
Length of Visible Light 15h 28m
Length of Day
14h 28m
Waning Crescent, 6% of the Moon is Illuminated
Jul 5
Waning Crescent
Jul 8
New
Jul 15
First Quarter
Jul 22
Full
Jul 29
Last Quarter

Hourly Weather History & Observations

Time (CDT) Temp. Heat Index Dew Point Humidity Pressure Visibility Wind Dir Wind Speed Gust Speed Precip Events Conditions
12:45 AM 69.8 °F - 66.2 °F 88% 30.03 in 10.0 mi Calm Calm - N/A   Partly Cloudy
12:53 AM 69.1 °F - 66.9 °F 93% 30.02 in 10.0 mi Calm Calm - N/A   Scattered Clouds
1:04 AM 69.8 °F - 66.2 °F 88% 30.03 in 10.0 mi Calm Calm - N/A   Mostly Cloudy
1:53 AM 69.1 °F - 68.0 °F 96% 30.02 in 10.0 mi Calm Calm - N/A   Overcast
2:53 AM 68.0 °F - 66.9 °F 96% 30.02 in 10.0 mi Calm Calm - N/A   Scattered Clouds
3:03 AM 68.0 °F - 66.2 °F 94% 30.03 in 10.0 mi ENE 3.5 mph - N/A   Mostly Cloudy
3:53 AM 68.0 °F - 66.0 °F 93% 30.02 in 10.0 mi Calm Calm - N/A   Mostly Cloudy
4:53 AM 66.9 °F - 66.0 °F 97% 30.03 in 10.0 mi Calm Calm - N/A   Mostly Cloudy
5:53 AM 68.0 °F - 66.9 °F 96% 30.04 in 10.0 mi Calm Calm - N/A   Overcast
6:53 AM 68.0 °F - 66.9 °F 96% 30.05 in 10.0 mi Calm Calm - N/A   Overcast
7:53 AM 69.1 °F - 66.9 °F 93% 30.06 in 10.0 mi ENE 3.5 mph - N/A   Overcast
8:12 AM 69.8 °F - 66.2 °F 88% 30.09 in 10.0 mi Calm Calm - N/A   Overcast
8:53 AM 70.0 °F - 66.9 °F 90% 30.09 in 10.0 mi Calm Calm - N/A   Overcast
9:53 AM 72.0 °F - 68.0 °F 87% 30.09 in 10.0 mi ESE 4.6 mph - N/A   Overcast
10:26 AM 73.4 °F - 68.0 °F 83% 30.10 in 10.0 mi SE 4.6 mph - N/A   Overcast
10:53 AM 73.0 °F - 68.0 °F 84% 30.09 in 10.0 mi Variable 3.5 mph - N/A   Overcast
11:25 AM 77.0 °F - 68.0 °F 74% 30.10 in 10.0 mi Variable 5.8 mph - N/A   Mostly Cloudy
11:53 AM 75.9 °F - 68.0 °F 76% 30.09 in 10.0 mi Variable 3.5 mph - N/A   Mostly Cloudy
12:53 PM 79.0 °F - 68.0 °F 69% 30.07 in 10.0 mi SE 5.8 mph - N/A   Mostly Cloudy
1:03 PM 78.8 °F - 68.0 °F 69% 30.09 in 10.0 mi SE 6.9 mph - N/A   Scattered Clouds
1:40 PM 80.6 °F 83.2 °F 68.0 °F 65% 30.07 in 10.0 mi SSE 6.9 mph - N/A   Mostly Cloudy
1:49 PM 80.6 °F 83.9 °F 69.8 °F 70% 30.07 in 10.0 mi Variable 4.6 mph - N/A   Scattered Clouds
1:53 PM 80.1 °F 82.7 °F 68.0 °F 67% 30.06 in 10.0 mi ESE 6.9 mph - N/A   Mostly Cloudy
2:06 PM 80.6 °F 83.2 °F 68.0 °F 65% 30.07 in 10.0 mi Variable 3.5 mph - N/A   Scattered Clouds
2:17 PM 80.6 °F 83.2 °F 68.0 °F 65% 30.07 in 10.0 mi ESE 6.9 mph - N/A   Mostly Cloudy
2:44 PM 80.6 °F 83.2 °F 68.0 °F 65% 30.06 in 10.0 mi Variable 3.5 mph - N/A   Scattered Clouds
2:53 PM 82.0 °F 84.9 °F 68.0 °F 62% 30.05 in 10.0 mi South 3.5 mph - N/A   Partly Cloudy
3:53 PM 82.9 °F 85.8 °F 68.0 °F 60% 30.03 in 10.0 mi Calm Calm - N/A   Partly Cloudy
4:33 PM 82.4 °F 85.4 °F 68.0 °F 62% 30.03 in 10.0 mi Calm Calm - N/A Thunderstorm Clear
4:48 PM 82.4 °F 86.3 °F 69.8 °F 66% 30.03 in 10.0 mi Calm Calm - N/A   Clear
4:53 PM 82.0 °F 85.5 °F 69.1 °F 65% 30.01 in 10.0 mi Calm Calm - N/A   Clear
5:44 PM 78.8 °F - 71.6 °F 78% 30.02 in 10.0 mi SSE 5.8 mph - 0.00 in Rain , Thunderstorm Light Rain
5:53 PM 75.9 °F - 71.1 °F 85% 30.02 in 10.0 mi East 9.2 mph - 0.00 in Rain Light Rain
6:09 PM 75.2 °F - 69.8 °F 83% 30.03 in 10.0 mi ESE 4.6 mph - 0.03 in Rain , Thunderstorm Light Thunderstorms and Rain
6:53 PM 71.1 °F - 66.0 °F 84% 30.02 in 10.0 mi SSE 6.9 mph - 0.14 in   Partly Cloudy
7:53 PM 68.0 °F - 66.0 °F 93% 30.02 in 10.0 mi Calm Calm - 0.00 in   Partly Cloudy
8:53 PM 68.0 °F - 64.9 °F 90% 30.03 in 10.0 mi Calm Calm - N/A   Clear
9:53 PM 70.0 °F - 68.0 °F 93% 30.05 in 10.0 mi SSE 6.9 mph - 0.01 in   Scattered Clouds
10:12 PM 69.8 °F - 68.0 °F 94% 30.07 in 10.0 mi South 6.9 mph - N/A Thunderstorm Mostly Cloudy
10:53 PM 71.1 °F - 68.0 °F 90% 30.05 in 4.0 mi SSW 8.1 mph - 0.18 in Rain Rain
11:53 PM 70.0 °F - 66.0 °F 87% 30.02 in 10.0 mi SSE 8.1 mph - 0.25 in   Scattered Clouds